Theta_e
297 296 296 296 296 294 292 290 292 293 294 294 294 294 295 296 295 296 295 293 292 290
294 294 295 294 292 291 290 293 292 293 293 293 295 296 296 294 293 293 292 292 292 292
294 293 292 291 290 290 291 292 292 292 293 293 294 295 294 293 293 292 292 291 290 289
293 293 290 289 290 290 292 292 293 293 293 293 293 292 292 291 291 290 289 288 287 286
291 290 288 288 289 291 292 293 292 293 292 291 290 290 288 287 287 286 285 285 284 284
290 288 286 288 290 291 290 291 292 291 290 290 289 288 286 286 285 284 284 283 283 283
288 289 290 290 291 292 292 292 292 291 289 287 285 285 284 284 283 282 282 282 282 281
290 293 293 293 292 292 292 291 288 286 284 284 283 283 283 282 282 281 281 282 282 281
295 294 291 291 291 290 290 290 285 283 282 281 283 285 285 285 282 282 282 280 280 281
293 292 292 292 290 288 283 282 281 281 281 281 281 284 284 284 281 281 281 280 280 280
290 289 287 284 282 281 280 280 279 280 280 280 280 283 283 283 280 279 279 279 280 279
284 283 282 281 280 280 279 279 279 280 280 279 278 281 282 282 278 277 278 280 280 280
283 282 280 279 279 279 278 279 280 279 278 278 277 280 281 281 278 276 279 280 281 281
282 280 279 278 278 278 277 278 274 272 274 276 277 275 281 281 280 279 279 279 279 280
Wind_Speed
7 6 8 9 7 5 1 3 4 6 7 7 6 5 4 3 3 3 3 3 3 3
7 7 9 10 5 2 4 4 5 5 5 5 5 5 4 3 0 1 4 7 7 5
9 8 8 6 5 4 4 4 5 4 4 5 4 5 4 4 4 6 5 4 5 5
9 10 7 5 3 2 2 3 2 3 3 2 4 2 2 4 5 4 4 3 4 5
9 8 6 3 2 2 3 3 4 5 6 5 4 4 3 3 4 4 5 6 5 6
8 6 5 5 5 5 5 7 9 7 6 6 5 5 4 3 4 5 5 5 5 5
6 6 6 6 7 7 8 6 5 5 5 4 4 4 5 5 4 4 5 5 6 6
3 4 5 6 5 5 6 4 5 4 3 4 4 3 4 4 5 6 7 6 7 7
1 2 4 4 4 4 6 5 4 5 5 5 3 9 12 9 5 7 8 9 9 9
5 5 4 4 5 5 4 3 4 4 4 5 5 10 14 16 8 8 8 9 10 10
3 4 4 4 4 4 3 4 5 5 5 4 6 15 17 17 7 7 9 10 11 11
5 4 5 5 5 4 4 4 4 3 5 5 8 15 17 14 6 7 10 9 10 11
5 5 6 5 5 3 3 4 3 5 5 9 8 14 17 15 6 7 7 11 12 17
5 5 4 5 3 4 4 4 4 5 6 7 9 9 17 20 9 7 8 8 9 8
Wind_Direction
322 316 305 300 303 291 252 136 126 104 98 100 101 103 95 77 50 65 37 352 289 251
295 295 307 306 286 217 148 147 130 115 113 121 130 114 100 100 88 159 240 229 221 225
305 299 293 293 271 201 166 135 134 142 150 140 131 138 153 195 213 219 224 220 215 214
305 305 305 302 273 168 150 176 188 276 287 4 22 338 220 239 255 263 278 271 256 249
305 313 318 345 83 47 316 349 325 25 5 358 335 334 317 309 314 301 290 279 280 269
322 329 344 18 30 33 19 19 14 357 347 335 336 330 334 317 299 287 276 278 282 282
345 17 46 39 24 27 20 359 328 292 329 342 326 331 317 306 299 286 271 265 256 257
90 69 10 8 19 339 280 303 344 335 348 337 321 311 323 297 281 279 284 283 282 276
232 298 264 294 290 279 277 294 320 345 342 333 333 332 324 316 290 278 276 283 282 276
335 316 305 286 289 299 318 337 331 332 348 333 319 319 314 310 296 289 286 281 282 283
260 275 337 9 7 340 338 344 335 325 328 322 306 315 315 313 300 285 280 275 277 276
352 6 3 358 347 336 333 325 318 316 315 307 303 313 318 319 298 283 279 283 283 279
357 355 355 353 337 318 321 307 317 312 310 311 304 312 321 325 304 286 288 303 293 288
0 356 355 333 321 320 326 324 319 312 303 299 307 308 322 326 316 303 296 293 297 289